Regional Weather Roundup
Issued by NWS

Home | Current Version | Previous Version | Text Only | Print | Product List | Glossary On
Versions: 1 2 3 4 5 6 7 8 9 10 11 12 13 14 15 16 17 18 19 20 21 22 23 24 25 26 27 28 29 30 31 32 33 34 35 36 37 38 39 40 41 42 43 44 45 46 47 48 49 50
000
ASUS44 KFWD 290515
RWRTX
NORTH TEXAS HOURLY WEATHER ROUNDUP
NATIONAL WEATHER SERVICE FORT WORTH TX
1200 AM CDT WED JUL 29 2015

NOTE: "FAIR" INDICATES FEW OR NO CLOUDS BELOW 12,000 FEET WITH NO
SIGNIFICANT WEATHER AND/OR OBSTRUCTIONS TO VISIBILITY.

TXZ118-119-290600-
DALLAS/FORT WORTH METROPLEX

CITY           SKY/WX    TMP DP  RH WIND       PRES   REMARKS
DFW AIRPORT    CLEAR     88  63  43 S10       29.95R
DALLAS LOVE    CLEAR     89  63  41 S12       29.95R HX  90
FTW MEACHAM    CLEAR     89  65  44 S13       29.94R HX  91
DAL-EXECUTIVE  CLEAR     86  64  47 S8        29.96R
FTW-ALLIANCE   CLEAR     86  64  47 S7        29.95R
FTW-NAS-JRB    CLEAR     89  65  44 S12       29.95R HX  91
FTW-SPINKS     CLEAR     82  65  57 SE6       29.97R
ARLINGTON      CLEAR     86  63  45 SE8       29.96R
GRAND PRAIRIE  CLEAR     86  66  51 SE5       29.97R
ADDISON        CLEAR     89  65  43 S7        29.97S HX  91
MESQUITE       CLEAR     80  66  61 S5        29.96R
LANCASTER      CLEAR     80  62  54 CALM      29.97R
$$

TXZ091>094-102>105-117-120-121-131>134-290600-
NORTH CENTRAL TEXAS

CITY           SKY/WX    TMP DP  RH WIND       PRES   REMARKS
SHRMAN/DENISON CLEAR     85  67  55 SE8       29.98R
GAINESVILLE    CLEAR     80  65  61 CALM      29.98R
BOWIE          CLEAR     78  65  64 CALM      29.97R
DECATUR        CLEAR     85  62  46 SE7       29.97R
DENTON         CLEAR     85  64  49 S9        29.95R
MCKINNEY       CLEAR     80  67  64 S6        29.96R
GREENVILLE     CLEAR     79  64  61 CALM      29.97R
ROCKWALL       CLEAR     84  65  52 S5        29.95S
TERRELL        CLEAR     82  65  56 S3        29.97R
WAXAHACHIE     CLEAR     82  66  59 SE3       29.98R
CLEBURNE       CLEAR     84  68  58 SE8       29.98R
GRANBURY       CLEAR     87  66  50 SE6       29.97R
$$

TXZ083>090-098>101-113>116-127>130-139>142-154-155-290600-
WESTERN NORTH TEXAS

CITY           SKY/WX    TMP DP  RH WIND       PRES   REMARKS
WICHITA FALLS  CLEAR     79  66  64 SE7       29.96R
WF-KICKAPOO    CLEAR     83  67  58 SE6       29.97R
VERNON         CLEAR     84  59  42 SE6       29.97R
ABILENE        CLEAR     83  64  52 S8        29.99R
ABILENE-DYESS  CLEAR     83  67  57 SE7       29.98R
BRECKENRIDGE   CLEAR     85  64  48 SE10      29.96S
GRAHAM         CLEAR     84  67  57 SE5       29.95R
MINERAL WELLS  CLEAR     82  66  58 SE7       29.95R
STEPHENVILLE   CLEAR     82  64  53 SE5       30.01R
COMANCHE       CLEAR     83  65  55 S7        29.99R
BROWNWOOD      PTCLDY    81  64  57 SE8       29.99R
COLEMAN        CLEAR     82  64  53 S5        30.00R
BRADY          CLEAR     84  63  48 SE8       30.00R
$$

TXZ143>147-156>162-174-175-290600-
CENTRAL TEXAS

CITY           SKY/WX    TMP DP  RH WIND       PRES   REMARKS
WACO           CLEAR     87  68  52 S12       29.97R HX  90
WACO-MCGREGOR  CLEAR     84  66  54 S10       29.99R
HILLSBORO      CLEAR     85  64  47 SE9       29.97R
CORSICANA      CLEAR     82  68  62 S6        29.97R
MEXIA          CLEAR     81  68  64 SE15      29.97R
HEARNE         CLEAR     83  73  69 SE8       29.99R
CAMERON        CLEAR     84  72  67 S15       29.97R HX  90
TEMPLE         CLEAR     84  68  58 S12       29.98R
KILLEEN        CLEAR     84  68  58 S13       29.98R
KILLEEN-SKYLRK CLEAR     84  64  51 S13       29.98R
FORT HOOD      CLEAR     85  66  53 S13       29.98R
GATESVILLE     CLEAR     86  66  51 S8        30.00R
HAMILTON       CLEAR     83  64  51 MISG      30.00R
LAMPASAS       CLEAR     84  70  63 S9        29.99R HAZE
$$

TXZ095>097-106>112-122>126-135>138-148>153-164>167-290600-
EAST TEXAS

CITY           SKY/WX    TMP DP  RH WIND       PRES   REMARKS
PARIS          CLEAR     82  66  57 S3        29.97R
SULPHUR SPRNGS CLEAR     85  67  54 S5        29.99R
MOUNT PLEASANT CLEAR     80  70  71 CALM      29.98R
GILMER         CLEAR     79  72  77 CALM      29.98R
MINEOLA        CLEAR     81  72  74 SE3       29.97R
TYLER          CLEAR     82  68  62 SE7       29.98R
LONGVIEW       CLEAR     82  71  69 SE6       29.97R
MARSHALL       CLEAR     80  74  79 CALM      30.00R
ATHENS         CLEAR     77  68  73 CALM      29.96R
PALESTINE      CLEAR     83  68  58 SE6       29.98R
JACKSONVILLE   CLEAR     84  67  57 S6        30.02R
HENDERSON      CLEAR     77  73  85 CALM      29.99R
CENTER         FAIR      83  73  71 S5        29.98R
NACOGDOCHES    CLEAR     81  72  74 CALM      29.98R
LUFKIN         CLEAR     81  71  71 S5        29.98R
$$

SUPPLEMENTAL OBSERVATIONS (CENTRAL)

CITY           SKY/WX    TMP DP  RH WIND       PRES   REMARKS
LAKE TEXOMA      N/A     84  66  54 SE5         N/A
CADDO GRASSLND   N/A     81  66  61 S3          N/A
PAT MAYSE LAKE   N/A     84  66  54 SE6         N/A
GREENVILLE       N/A     81  66  61 SE3         N/A
CEDAR HILL       N/A     86  63  45 SE9         N/A
ATHENS           N/A     82  64  54 S3          N/A
LAKE LIMESTONE   N/A     82  68  61 S6          N/A
MCGREGOR         N/A     84  68  58 S9          N/A
TEMPLE           N/A     84  70  61 S12G21      N/A
$$

SUPPLEMENTAL OBSERVATIONS (WEST)

CITY           SKY/WX    TMP DP  RH WIND       PRES   REMARKS
MILLERS CREEK    N/A     84  66  54 SE8         N/A
POSSUM KINGDOM   N/A     84  63  48 SE6         N/A
LBJ GRASSLAND    N/A     86  63  45 SE9         N/A
GRANBURY         N/A     86  66  51 SE7         N/A
COMANCHE         N/A     82  63  51 S7          N/A
HAMBY            N/A     84  61  45 S10         N/A
IVIE RESERVOIR   N/A     84  61  45 SE6         N/A
COLORADO BEND    N/A     84  66  54 SW13G22     N/A
$$

SUPPLEMENTAL OBSERVATIONS (EAST)

CITY           SKY/WX    TMP DP  RH WIND       PRES   REMARKS
CLARKSVILLE      N/A     81  72  74 CALM        N/A
TEXARKANA        N/A     75  72  88 CALM        N/A
LINDEN           N/A     79  68  69 CALM        N/A
CADDO LAKE       N/A     73  72  94 CALM        N/A
GILMER           N/A     79  72  78 CALM        N/A
HENDERSON        N/A     79  68  69 S2          N/A
LUFKIN           N/A     81  70  69 MISG        N/A
N SABINE NF      N/A     79  72  78 MISG        N/A
S SABINE NF      N/A     79  72  78 CALM        N/A
$$

SUPPLEMENTAL OBSERVATIONS ARE A COLLECTION OF AUTOMATED INSTRUMENTS
THAT ARE MAINTAINED BY A VARIETY OF FEDERAL AND STATE AGENCIES.
CERTAIN ELEMENTS...SUCH AS HUMIDITY VALUES AND SUSTAINED WIND
SPEEDS...MAY BE APPROXIMATED.



USA.gov is the U.S. government's official web portal to all federal, state and local government web resources and services.